• In Uzbekistan
  • List of Countries
  • For 7 days
  • Water Temperature
  • Satellite Maps
  • Weather Map
  • Weather Widgets
  • user-avatar
    Login

    Hourly Weather Duchan

    Today, 15 October, Monday

    Time Temperature Precipitation Wind Pressure Humidity
    00:00 +31°C° 0 mm 3 mps 756 mmHg 62%
    01:00 +31°C° 0 mm 3 mps 756 mmHg 59%
    02:00 +31°C° 0 mm 3 mps 756 mmHg 57%
    03:00 +30°C° 0 mm 2 mps 756 mmHg 62%
    04:00 +30°C° 0 mm 2 mps 756 mmHg 60%
    05:00 +30°C° 0 mm 2 mps 757 mmHg 57%
    06:00 +30°C° 0 mm 2 mps 757 mmHg 55%
    07:00 +31°C° 0 mm 2 mps 757 mmHg 49%
    08:00 +32°C° 0 mm 2 mps 757 mmHg 43%
    09:00 +35°C° 0 mm 2 mps 757 mmHg 42%
    10:00 +36°C° 0 mm 2 mps 757 mmHg 39%
    11:00 +37°C° 0 mm 2 mps 757 mmHg 35%
    12:00 +37°C° 0 mm 1 mps 756 mmHg 31%
    13:00 +38°C° 0 mm 2 mps 756 mmHg 30%
    14:00 +38°C° 0 mm 2 mps 756 mmHg 29%
    15:00 +38°C° 0 mm 4 mps 755 mmHg 33%
    16:00 +37°C° 0 mm 5 mps 756 mmHg 41%
    17:00 +36°C° 0 mm 5 mps 756 mmHg 48%
    18:00 +35°C° 0 mm 5 mps 756 mmHg 56%
    19:00 +35°C° 0 mm 5 mps 756 mmHg 56%
    20:00 +34°C° 0 mm 4 mps 756 mmHg 56%
    21:00 +34°C° 0 mm 3 mps 757 mmHg 57%
    22:00 +33°C° 0 mm 3 mps 757 mmHg 55%
    23:00 +33°C° 0 mm 3 mps 756 mmHg 54%

    Tomorrow, 16 October, Tuesday

    Time Temperature Precipitation Wind Pressure Humidity
    00:00 +32°C° 0 mm 2 mps 756 mmHg 53%
    01:00 +31°C° 0 mm 3 mps 756 mmHg 53%
    02:00 +31°C° 0 mm 3 mps 756 mmHg 52%
    03:00 +30°C° 0 mm 3 mps 756 mmHg 52%
    04:00 +30°C° 0 mm 3 mps 756 mmHg 53%
    05:00 +30°C° 0 mm 3 mps 756 mmHg 55%
    06:00 +30°C° 0 mm 3 mps 757 mmHg 56%
    07:00 +31°C° 0 mm 3 mps 757 mmHg 52%
    08:00 +33°C° 0 mm 3 mps 757 mmHg 48%
    09:00 +35°C° 0 mm 3 mps 757 mmHg 44%
    10:00 +36°C° 0 mm 3 mps 757 mmHg 40%
    11:00 +37°C° 0 mm 3 mps 757 mmHg 36%
    12:00 +38°C° 0 mm 2 mps 756 mmHg 33%
    13:00 +38°C° 0 mm 3 mps 756 mmHg 31%
    14:00 +38°C° 0 mm 3 mps 755 mmHg 30%
    15:00 +40°C° 0 mm 4 mps 755 mmHg 28%
    16:00 +37°C° 0 mm 4 mps 755 mmHg 33%
    17:00 +36°C° 0 mm 4 mps 755 mmHg 39%
    18:00 +35°C° 0 mm 4 mps 755 mmHg 44%
    19:00 +35°C° 0 mm 4 mps 755 mmHg 47%
    20:00 +34°C° 0 mm 4 mps 756 mmHg 50%
    21:00 +34°C° 0 mm 4 mps 756 mmHg 53%
    22:00 +33°C° 0 mm 3 mps 756 mmHg 55%
    23:00 +33°C° 0 mm 3 mps 756 mmHg 56%

    Day after tomorrow, 17 October, Wednesday

    Time Temperature Precipitation Wind Pressure Humidity
    00:00 +31°C° 0 mm 3 mps 756 mmHg 58%
    01:00 +31°C° 0 mm 3 mps 756 mmHg 58%
    02:00 +31°C° 0 mm 3 mps 756 mmHg 58%
    03:00 +30°C° 0 mm 3 mps 756 mmHg 58%
    04:00 +30°C° 0 mm 4 mps 756 mmHg 56%
    05:00 +30°C° 0 mm 4 mps 756 mmHg 54%
    06:00 +30°C° 0 mm 5 mps 756 mmHg 53%
    07:00 +32°C° 0 mm 5 mps 756 mmHg 48%
    08:00 +33°C° 0 mm 5 mps 757 mmHg 43%
    09:00 +35°C° 0 mm 5 mps 757 mmHg 38%
    10:00 +35°C° 0 mm 4 mps 757 mmHg 35%
    11:00 +36°C° 0 mm 3 mps 756 mmHg 33%
    12:00 +37°C° 0 mm 2 mps 756 mmHg 30%
    13:00 +37°C° 0 mm 2 mps 755 mmHg 29%
    14:00 +37°C° 0 mm 2 mps 755 mmHg 28%
    15:00 +38°C° 0 mm 2 mps 754 mmHg 27%
    16:00 +37°C° 0 mm 3 mps 754 mmHg 31%
    17:00 +36°C° 0 mm 3 mps 755 mmHg 34%
    18:00 +35°C° 0 mm 4 mps 755 mmHg 38%
    19:00 +34°C° 0 mm 4 mps 755 mmHg 40%
    20:00 +34°C° 0 mm 4 mps 756 mmHg 41%
    21:00 +34°C° 0 mm 3 mps 756 mmHg 42%
    22:00 +33°C° 0 mm 4 mps 756 mmHg 41%
    23:00 +33°C° 0 mm 4 mps 756 mmHg 41%

    18 October, Thursday

    Time Temperature Precipitation Wind Pressure Humidity
    00:00 +33°C° 0 mm 4 mps 756 mmHg 40%
    01:00 +32°C° 0 mm 4 mps 755 mmHg 41%
    02:00 +32°C° 0 mm 4 mps 755 mmHg 42%
    03:00 +32°C° 0 mm 4 mps 755 mmHg 43%
    04:00 +30°C° 0 mm 3 mps 755 mmHg 44%
    05:00 +30°C° 0 mm 3 mps 756 mmHg 46%
    06:00 +30°C° 0 mm 3 mps 756 mmHg 47%
    07:00 +30°C° 0 mm 3 mps 756 mmHg 45%
    08:00 +31°C° 0 mm 3 mps 757 mmHg 44%
    09:00 +32°C° 0 mm 2 mps 757 mmHg 42%
    10:00 +32°C° 0 mm 2 mps 757 mmHg 40%
    11:00 +34°C° 0 mm 2 mps 756 mmHg 38%
    12:00 +35°C° 0 mm 2 mps 756 mmHg 35%
    13:00 +35°C° 0 mm 2 mps 755 mmHg 36%
    14:00 +35°C° 0 mm 2 mps 755 mmHg 36%
    15:00 +35°C° 0 mm 2 mps 754 mmHg 36%
    16:00 +35°C° 0 mm 2 mps 754 mmHg 39%
    17:00 +34°C° 0 mm 2 mps 755 mmHg 41%
    18:00 +34°C° 0 mm 2 mps 755 mmHg 43%
    19:00 +34°C° 0 mm 2 mps 755 mmHg 45%
    20:00 +32°C° 0 mm 2 mps 756 mmHg 47%
    21:00 +32°C° 0 mm 2 mps 756 mmHg 49%
    22:00 +32°C° 0 mm 2 mps 756 mmHg 50%
    23:00 +31°C° 0 mm 2 mps 756 mmHg 51%

    19 October, Friday

    Time Temperature Precipitation Wind Pressure Humidity
    00:00 +31°C° 0 mm 2 mps 755 mmHg 52%
    01:00 +31°C° 0.4 mm 2 mps 755 mmHg 53%
    02:00 +30°C° 0.4 mm 2 mps 755 mmHg 55%
    03:00 +30°C° 0.4 mm 2 mps 755 mmHg 57%
    04:00 +30°C° 0.2 mm 2 mps 755 mmHg 58%
    05:00 +30°C° 0.2 mm 2 mps 756 mmHg 60%
    06:00 +29°C° 0.2 mm 3 mps 756 mmHg 62%
    07:00 +30°C° 0.1 mm 3 mps 756 mmHg 60%
    08:00 +30°C° 0.1 mm 3 mps 757 mmHg 58%
    09:00 +30°C° 0.1 mm 3 mps 757 mmHg 56%
    10:00 +31°C° 0 mm 3 mps 757 mmHg 53%
    11:00 +31°C° 0 mm 2 mps 757 mmHg 51%
    12:00 +32°C° 0 mm 2 mps 756 mmHg 48%
    13:00 +32°C° 0 mm 2 mps 756 mmHg 47%
    14:00 +33°C° 0 mm 3 mps 755 mmHg 46%
    15:00 +33°C° 0 mm 3 mps 755 mmHg 45%
    16:00 +32°C° 0 mm 2 mps 755 mmHg 47%
    17:00 +31°C° 0 mm 2 mps 756 mmHg 48%
    18:00 +31°C° 0 mm 1 mps 756 mmHg 50%
    19:00 +31°C° 0 mm 1 mps 756 mmHg 51%
    20:00 +30°C° 0 mm 1 mps 757 mmHg 52%
    21:00 +30°C° 0 mm 1 mps 757 mmHg 53%
    22:00 +30°C° 0 mm 1 mps 757 mmHg 54%
    23:00 +30°C° 0 mm 1 mps 756 mmHg 55%

    20 October, Saturday

    Time Temperature Precipitation Wind Pressure Humidity
    00:00 +29°C° 0 mm 1 mps 756 mmHg 56%
    01:00 +29°C° 0 mm 1 mps 756 mmHg 57%
    02:00 +29°C° 0 mm 1 mps 756 mmHg 58%
    03:00 +29°C° 0 mm 1 mps 756 mmHg 59%
    04:00 +29°C° 0 mm 1 mps 756 mmHg 59%
    05:00 +29°C° 0 mm 1 mps 756 mmHg 58%
    06:00 +29°C° 0 mm 1 mps 757 mmHg 58%
    07:00 +30°C° 0 mm 1 mps 757 mmHg 54%
    08:00 +31°C° 0 mm 2 mps 758 mmHg 49%
    09:00 +34°C° 0 mm 2 mps 758 mmHg 45%
    10:00 +34°C° 0 mm 2 mps 757 mmHg 43%
    11:00 +35°C° 0 mm 2 mps 757 mmHg 40%
    12:00 +35°C° 0 mm 1 mps 756 mmHg 38%
    13:00 +36°C° 0 mm 2 mps 756 mmHg 38%
    14:00 +36°C° 0 mm 2 mps 756 mmHg 38%
    15:00 +36°C° 0 mm 2 mps 756 mmHg 38%
    16:00 +36°C° 0 mm 2 mps 756 mmHg 40%
    17:00 +35°C° 0 mm 3 mps 756 mmHg 42%
    18:00 +35°C° 0 mm 3 mps 756 mmHg 44%
    19:00 +34°C° 0 mm 3 mps 757 mmHg 47%
    20:00 +34°C° 0 mm 3 mps 757 mmHg 50%
    21:00 +34°C° 0 mm 3 mps 757 mmHg 53%
    22:00 +33°C° 0.1 mm 3 mps 757 mmHg 54%
    23:00 +33°C° 0.1 mm 3 mps 757 mmHg 56%
    Show more